Regional Weather Roundup
Issued by NWS

Home | Current Version | Previous Version | Graphics & Text | Print | Product List | Glossary Off
Versions: 1 2 3 4 5 6 7 8 9 10 11 12 13 14 15 16 17 18 19 20 21 22 23 24 25 26 27 28 29 30 31 32 33 34 35 36 37 38 39 40 41 42 43 44 45 46 47 48 49 50

000
ASUS43 KMKX 122200
RWRWI

WISCONSIN REGIONAL WEATHER ROUNDUP
NATIONAL WEATHER SERVICE MILWAUKEE/SULLIVAN WI
500 PM CDT SAT JUL 12 2014

NOTE: "FAIR" INDICATES FEW OR NO CLOUDS BELOW 12,000 FEET WITH NO
SIGNIFICANT WEATHER AND/OR OBSTRUCTIONS TO VISIBILITY.

WIZ001-002-006>008-014>016-023>028-122300-
NORTHWEST WISCONSIN

CITY           SKY/WX    TMP DP  RH WIND       PRES   REMARKS
SUPERIOR ARPT  CLOUDY    73  64  73 SW7       29.91F
ASHLAND        CLOUDY    69  62  78 CALM      29.93F
HAYWARD        LGT RAIN  72  66  81 CALM      29.95S
SIREN          LGT RAIN  71  66  86 SW3       29.96F
RICE LAKE      HVY RAIN  66  63  90 S7        30.01R
LADYSMITH      TSTM      67  64  89 W12       29.99R
EAU CLAIRE     NOT AVBL
MENOMONIE      LGT RAIN  67  67  97 N10       29.99S
NEW RICHMOND   LGT RAIN  67  66  94 SW5       29.97F
OSCEOLA        LGT RAIN  72  71  97 SW3       29.99F
$$

WIZ003>005-009-010-017-018-122300-
NORTH CENTRAL WISCONSIN

CITY           SKY/WX    TMP DP  RH WIND       PRES   REMARKS
WOODRUFF       CLOUDY    77  66  68 SW5       29.93F
RHINELANDER    TSTM      69  65  86 SW14      29.97R
EAGLE RIVER    CLOUDY    75  63  67 SW8       29.93F
LAND O LAKES   CLOUDY    75  65  70 SW6       29.93F
PHILLIPS       LGT RAIN  67  63  89 E5        29.95S
TOMAHAWK       HVY RAIN  63  59  86 CALM      29.97R
MEDFORD        CLOUDY    72  69  91 S10       29.95F
MERRILL        LGT RAIN  73  70  88 SW7       29.95S
$$

WIZ029-030-035-036-043>047-122300-
CENTRAL WISCONSIN

CITY           SKY/WX    TMP DP  RH WIND       PRES   REMARKS
WAUSAU         LGT RAIN  73  70  90 SW9       29.93F FOG
MOSINEE        RAIN      72  72 100 SW12      29.97F
MARSHFIELD     LGT RAIN  68  66  93 W6        29.97F FOG
STEVENS POINT  LGT RAIN  66  62  87 W6        29.97S
WAUPACA        CLOUDY    80  70  72 W8        29.95F HX  83
WAUTOMA        NOT AVBL
WISC RAPIDS    HVY RAIN  69  63  81 NE8       29.98S VSB 1
CAMP DOUGLAS   NOT AVBL
$$

WIZ011>013-019>022-031-037>040-048>050-122300-
NORTHEAST WISCONSIN

CITY           SKY/WX    TMP DP  RH WIND       PRES   REMARKS
ANTIGO         LGT RAIN  73  69  87 SW8       29.95F
STURGEON BAY   CLOUDY    72  63  73 S7        29.92F
GREEN BAY      CLOUDY    80  70  71 SW8       29.92F HX  83
MANITOWOC      NOT AVBL
APPLETON       CLOUDY    75  68  78 W8        29.94F
CLINTONVILLE   LGT RAIN  77  68  73 SW6       29.93F
OSHKOSH        LGT RAIN  76  70  82 W6        29.93F
$$

WIZ032>034-041-042-053>061-122300-
SOUTHWEST WISCONSIN

CITY           SKY/WX    TMP DP  RH WIND       PRES   REMARKS
LA CROSSE      RAIN      69  67  93 NW7       29.98R FOG
SPARTA         HVY RAIN  67  65  94 CALM      30.00R
VIROQUA        CLOUDY    72  72 100 CALM      29.97F
BOSCOBEL       LGT RAIN  76  72  87 CALM      29.94F
PRAIRIE DU CHI LGT RAIN  76  71  83 CALM      29.94F
PLATTEVILLE    PTSUNNY   77  74  89 SW3       29.97F
$$

WIZ056-057-062-063-064-067-068-122300-
SOUTH CENTRAL WISCONSIN

CITY           SKY/WX    TMP DP  RH WIND       PRES   REMARKS
BARABOO/DELLS  LGT RAIN  74  69  85 CALM      29.96F
LONE ROCK      LGT RAIN  79  72  78 CALM      29.94F HX  82
WATERTOWN      CLOUDY    75  71  88 W6        29.96R
MADISON        LGT RAIN  77  72  84 VRB5      29.97R
MIDDLETON      MOCLDY    77  74  89 W5        29.97S
MONROE         CLOUDY    77  72  83 SW7       29.97F
JANESVILLE     CLOUDY    79  70  73 SW5       29.95F HX  81
$$

WIZ051-052-058>065-066-070>072-122300-
SOUTHEAST WISCONSIN

CITY           SKY/WX    TMP DP  RH WIND       PRES   REMARKS
MILWAUKEE      CLOUDY    77  69  76 W13       29.94F
WAUKESHA       CLOUDY    73  70  88 SW6       29.95F
MILWAUKEE/TIMM CLOUDY    75  68  78 W10       29.95F
RACINE         LGT RAIN  78  70  76 W8        29.96F HX  80
BURLINGTON     LGT RAIN  74  70  87 W5        29.96F
KENOSHA        CLOUDY    78  71  79 W8        29.96R HX  80
FOND DU LAC    CLOUDY    74  69  85 W5        29.94F
SHEBOYGAN      CLOUDY    76  68  76 W9        29.93F
WEST BEND      CLOUDY    73  66  78 W9        29.95F
JUNEAU         CLOUDY    74  55  51 SW7       29.97S
$$

LSZ147-162-122300-
LAKE SUPERIOR

STATION/POSITION TIME  TEMP    WIND        PRES    WAVE
                       AIR SEA DIR/SP/G            HT/PER
                 (UTC) (F)     (DEG/KT/KT) (MB)    (FT/S)
W MID LAKE BUOY  2050   46 39  210/  8/  8 1013.5F   0
PORT WING        2140   65      CALM  /  2 1013.2F
SAXON HARBOR     2100             CALM     1013.5F
$$

LMZ867-665-643>646-122300-
LAKE MICHIGAN

STATION/POSITION TIME  TEMP    WIND        PRES    WAVE
                       AIR SEA DIR/SP/G            HT/PER
                 (UTC) (F)     (DEG/KT/KT) (MB)    (FT/S)
N MID LAKE BUOY  2050   58 56  210/ 10/ 12 1012.8F   2/ 4
NORTHPORT PIER   2100   70     140/  7/ 10 1012.9F
KEWAUNEE LAKESHO 2100   57     170/ 10/ 11 1014.4F
SHEBOYGAN LAKESH 2100   72     190/  7/  9 1013.7F
PORT WASHINGTON  2130          190/  2/ 12 1013.9F
MILWAUKEE LAKESH 2100   76     240/ 12/ 16   N/A
S MID LAKE BUOY  2050   63 61  160/ 10/ 10 1014.8F   2/ 4
KENOSHA   LAKESH 2100   79     240/  7/ 12   N/A
$$

TC  - TEMPERATURE IN CELSIUS
VSB - VISIBILITY IN STATUTE MILES
WCI - WIND CHILL INDEX
HX  - HEAT INDEX




USA.gov is the U.S. government's official web portal to all federal, state and local government web resources and services.